This is the latest recevied weather packets stored in our database for station/object W4MLN-3. If no packets are shown the sender has not sent any weather packets the latest 10 day(s).
| Time | Temp. | Humidity | Pressure | Rain* | Wind** | Luminosity | Snow |
|---|---|---|---|---|---|---|---|
| 1778181003 | 15.56° C | 73% | 1010.3 hPa | 0 mm | - | - | - |
| 1778180703 | 16.11° C | 70% | 1010.3 hPa | 0 mm | - | - | - |
| 1778180403 | 16.67° C | 69% | 1010.3 hPa | 0 mm | - | - | - |
| 1778180103 | 17.22° C | 68% | 1010.4 hPa | 0 mm | - | - | - |
| 1778179803 | 17.78° C | 69% | 1010.4 hPa | 0 mm | - | - | - |
| 1778179503 | 17.22° C | 74% | 1010.4 hPa | 0 mm | - | - | - |
| 1778179203 | 16.67° C | 70% | 1010.3 hPa | 0 mm | - | - | - |
| 1778178903 | 16.67° C | 71% | 1010.4 hPa | 0 mm | - | - | - |
| 1778178603 | 17.22° C | 71% | 1010.4 hPa | 0 mm | - | - | - |
| 1778178303 | 17.78° C | 68% | 1010.4 hPa | 0 mm | - | - | - |
| 1778178003 | 17.78° C | 72% | 1010.3 hPa | 0 mm | - | - | - |
| 1778177704 | 17.22° C | 72% | 1010.2 hPa | 0 mm | - | - | - |
| 1778177403 | 17.22° C | 70% | 1010.3 hPa | 0 mm | - | - | - |
| 1778177103 | 17.22° C | 73% | 1010.2 hPa | 0 mm | - | - | - |
| 1778176803 | 16.67° C | 76% | 1010.2 hPa | 0 mm | - | - | - |
| 1778176503 | 16.11° C | 75% | 1010.2 hPa | 0 mm | - | - | - |
| 1778176203 | 16.11° C | 75% | 1010.2 hPa | 0 mm | - | - | - |
| 1778175903 | 16.67° C | 74% | 1010.1 hPa | 0 mm | - | - | - |
| 1778175625 | 16.67° C | 73% | 1010.1 hPa | 0 mm | - | - | - |
| 1778175303 | 17.22° C | 73% | 1010.1 hPa | 0 mm | - | - | - |
| 1778175003 | 17.22° C | 72% | 1010 hPa | 0 mm | - | - | - |
| 1778174703 | 17.78° C | 70% | 1010 hPa | 0 mm | - | - | - |
| 1778174403 | 18.33° C | 68% | 1009.8 hPa | 0 mm | - | - | - |
| 1778174103 | 18.89° C | 66% | 1009.9 hPa | 0 mm | - | - | - |
| 1778173803 | 19.44° C | 65% | 1009.8 hPa | 0 mm | - | - | - |
* Rain latest hour (hover to see other rain measurements)
** Current wind speed in m/s (hover to see current wind gust speed)